This is the latest recevied weather packets stored in our database for station/object N8WJW. If no packets are shown the sender has not sent any weather packets the latest 10 day(s).
| Time | Temp. | Humidity | Pressure | Rain* | Wind** | Luminosity | Snow |
|---|---|---|---|---|---|---|---|
| 1778160777 | 10° C | 69% | 1014.2 hPa | 0 mm | - | 67 W/m² | - |
| 1778160475 | 10° C | 71% | 1014 hPa | 0 mm | - | 58 W/m² | - |
| 1778160171 | 10° C | 72% | 1013.9 hPa | 0 mm | - | 56 W/m² | - |
| 1778159868 | 9.44° C | 72% | 1014.2 hPa | 0 mm | - | 61 W/m² | - |
| 1778159565 | 10° C | 73% | 1014.1 hPa | 0 mm | - | 57 W/m² | - |
| 1778159262 | 9.44° C | 75% | 1014 hPa | 0 mm | - | 62 W/m² | - |
| 1778158960 | 9.44° C | 76% | 1014.1 hPa | 0 mm | - | 59 W/m² | - |
| 1778158658 | 8.89° C | 76% | 1014.1 hPa | 0 mm | - | 61 W/m² | - |
| 1778158355 | 8.89° C | 78% | 1014 hPa | 0 mm | - | 62 W/m² | - |
| 1778158052 | 8.33° C | 78% | 1014.1 hPa | 0 mm | - | 75 W/m² | - |
| 1778157749 | 8.33° C | 78% | 1014.3 hPa | 0 mm | - | 65 W/m² | - |
| 1778157447 | 8.33° C | 81% | 1014.1 hPa | 0 mm | - | 72 W/m² | - |
| 1778157144 | 7.78° C | 82% | 1014 hPa | 0 mm | - | 77 W/m² | - |
| 1778156839 | 7.78° C | 83% | 1014.2 hPa | 0 mm | - | 80 W/m² | - |
| 1778156535 | 7.22° C | 83% | 1014.1 hPa | 0 mm | - | 80 W/m² | - |
| 1778156231 | 7.22° C | 84% | 1013.9 hPa | 0 mm | - | 73 W/m² | - |
| 1778155928 | 6.67° C | 86% | 1014.2 hPa | 0 mm | - | 70 W/m² | - |
| 1778155624 | 6.67° C | 87% | 1014 hPa | 0 mm | - | 64 W/m² | - |
| 1778155321 | 6.11° C | 88% | 1014.1 hPa | 0 mm | - | 59 W/m² | - |
| 1778155017 | 6.11° C | 89% | 1014.2 hPa | 0 mm | - | 49 W/m² | - |
| 1778154713 | 6.11° C | 91% | 1013.9 hPa | 0 mm | - | 57 W/m² | - |
| 1778154409 | 5.56° C | 92% | 1014 hPa | 0 mm | - | 55 W/m² | - |
| 1778154106 | 5.56° C | 92% | 1013.9 hPa | 0 mm | - | 59 W/m² | - |
| 1778153803 | 5° C | 94% | 1014 hPa | 0 mm | - | 53 W/m² | - |
| 1778153500 | 5° C | 95% | 1014.1 hPa | 0 mm | - | 50 W/m² | - |
* Rain latest hour (hover to see other rain measurements)
** Current wind speed in m/s (hover to see current wind gust speed)